PRIVATE WETTERSTATION BILLIGHEIM-ALLFELD                       ZURCK
Wetterdaten: Samstag, 09.09.2017
Datum Zeit Temp. A. Temp. A. min Temp. A. max Feuchte A. Luftdruck Regen Wind Richtung Richtung Sonnenschein ET Solar Taupunkt Windchill Windben Empfang
09.09.2017 00:00 13,8 C 13,8 C 13,9 C 77 % 1003,6 hPa 0,0 l/m 4,8 km/h (1 Bft) S-SO 157 0 min 0,025 mm 0 W/m 9,8 C 13,8 C 11,3 km/h (2 Bft) 100 %
09.09.2017 00:10 13,9 C 13,8 C 13,9 C 77 % 1003,4 hPa 0,0 l/m 4,8 km/h (1 Bft) S 180 0 min 0,000 mm 0 W/m 9,9 C 13,9 C 14,5 km/h (3 Bft) 91 %
09.09.2017 00:20 13,8 C 13,8 C 13,9 C 78 % 1003,4 hPa 0,0 l/m 4,8 km/h (1 Bft) S-SO 157 0 min 0,000 mm 0 W/m 10,0 C 13,8 C 11,3 km/h (2 Bft) 100 %
09.09.2017 00:30 13,7 C 13,7 C 13,8 C 78 % 1003,4 hPa 0,0 l/m 6,4 km/h (2 Bft) S-SO 157 0 min 0,000 mm 0 W/m 9,9 C 13,7 C 9,7 km/h (2 Bft) 100 %
09.09.2017 00:40 13,6 C 13,6 C 13,7 C 78 % 1003,2 hPa 0,0 l/m 4,8 km/h (1 Bft) S-SO 157 0 min 0,000 mm 0 W/m 9,8 C 13,6 C 11,3 km/h (2 Bft) 100 %
09.09.2017 00:50 13,9 C 13,6 C 13,9 C 77 % 1003,0 hPa 0,0 l/m 6,4 km/h (2 Bft) S-SO 157 0 min 0,000 mm 0 W/m 9,9 C 13,9 C 14,5 km/h (3 Bft) 100 %
09.09.2017 01:00 14,0 C 13,8 C 14,0 C 77 % 1003,0 hPa 0,0 l/m 6,4 km/h (2 Bft) S-SO 157 0 min 0,025 mm 0 W/m 10,0 C 14,0 C 14,5 km/h (3 Bft) 100 %
09.09.2017 01:10 14,0 C 14,0 C 14,0 C 77 % 1003,0 hPa 0,0 l/m 4,8 km/h (1 Bft) S-SO 157 0 min 0,000 mm 0 W/m 10,0 C 14,0 C 12,9 km/h (3 Bft) 100 %
09.09.2017 01:20 14,1 C 13,9 C 14,1 C 76 % 1002,8 hPa 0,0 l/m 4,8 km/h (1 Bft) S-SO 157 0 min 0,000 mm 0 W/m 9,9 C 14,1 C 12,9 km/h (3 Bft) 100 %
09.09.2017 01:30 14,1 C 14,1 C 14,1 C 76 % 1002,6 hPa 0,0 l/m 6,4 km/h (2 Bft) S-SO 157 0 min 0,000 mm 0 W/m 9,9 C 14,1 C 14,5 km/h (3 Bft) 100 %
09.09.2017 01:40 14,1 C 14,0 C 14,1 C 76 % 1002,5 hPa 0,0 l/m 6,4 km/h (2 Bft) S-SO 157 0 min 0,000 mm 0 W/m 9,9 C 14,1 C 16,1 km/h (3 Bft) 100 %
09.09.2017 01:50 13,9 C 13,9 C 14,1 C 76 % 1002,5 hPa 0,0 l/m 4,8 km/h (1 Bft) S-SO 157 0 min 0,000 mm 0 W/m 9,7 C 13,9 C 12,9 km/h (3 Bft) 100 %
09.09.2017 02:00 13,8 C 13,8 C 14,0 C 77 % 1002,3 hPa 0,0 l/m 6,4 km/h (2 Bft) S-SO 157 0 min 0,025 mm 0 W/m 9,8 C 13,8 C 11,3 km/h (2 Bft) 100 %
09.09.2017 02:10 13,7 C 13,7 C 13,8 C 77 % 1002,1 hPa 0,0 l/m 4,8 km/h (1 Bft) S-SO 157 0 min 0,000 mm 0 W/m 9,7 C 13,7 C 11,3 km/h (2 Bft) 100 %
09.09.2017 02:20 13,6 C 13,6 C 13,7 C 78 % 1001,9 hPa 0,0 l/m 4,8 km/h (1 Bft) S-SO 157 0 min 0,000 mm 0 W/m 9,8 C 13,6 C 11,3 km/h (2 Bft) 100 %
09.09.2017 02:30 13,6 C 13,5 C 13,6 C 78 % 1001,8 hPa 0,0 l/m 3,2 km/h (1 Bft) S-SO 157 0 min 0,000 mm 0 W/m 9,8 C 13,6 C 11,3 km/h (2 Bft) 100 %
09.09.2017 02:40 13,4 C 13,4 C 13,5 C 78 % 1001,6 hPa 0,0 l/m 4,8 km/h (1 Bft) S-SO 157 0 min 0,000 mm 0 W/m 9,6 C 13,4 C 8,0 km/h (2 Bft) 100 %
09.09.2017 02:50 13,3 C 13,3 C 13,4 C 79 % 1001,5 hPa 0,0 l/m 3,2 km/h (1 Bft) S-SO 157 0 min 0,000 mm 0 W/m 9,7 C 13,3 C 8,0 km/h (2 Bft) 100 %
09.09.2017 03:00 13,3 C 13,3 C 13,3 C 79 % 1001,3 hPa 0,0 l/m 1,6 km/h (1 Bft) S-SO 157 0 min 0,025 mm 0 W/m 9,7 C 13,3 C 8,0 km/h (2 Bft) 100 %
09.09.2017 03:10 13,3 C 13,3 C 13,3 C 79 % 1001,1 hPa 0,0 l/m 3,2 km/h (1 Bft) S-SO 157 0 min 0,000 mm 0 W/m 9,7 C 13,3 C 8,0 km/h (2 Bft) 100 %
09.09.2017 03:20 13,3 C 13,3 C 13,3 C 79 % 1000,9 hPa 0,0 l/m 1,6 km/h (1 Bft) SO 135 0 min 0,000 mm 0 W/m 9,7 C 13,3 C 4,8 km/h (1 Bft) 100 %
09.09.2017 03:30 13,4 C 13,3 C 13,4 C 79 % 1000,8 hPa 0,0 l/m 0,0 km/h (0 Bft) S-SO 157 0 min 0,000 mm 0 W/m 9,8 C 13,4 C 4,8 km/h (1 Bft) 100 %
09.09.2017 03:40 13,4 C 13,4 C 13,4 C 79 % 1000,8 hPa 0,0 l/m 3,2 km/h (1 Bft) S-SO 157 0 min 0,000 mm 0 W/m 9,8 C 13,4 C 8,0 km/h (2 Bft) 99 %
09.09.2017 03:50 13,3 C 13,3 C 13,4 C 79 % 1000,6 hPa 0,0 l/m 3,2 km/h (1 Bft) S-SO 157 0 min 0,000 mm 0 W/m 9,7 C 13,3 C 6,4 km/h (2 Bft) 100 %
09.09.2017 04:00 13,2 C 13,2 C 13,3 C 79 % 1000,5 hPa 0,0 l/m 1,6 km/h (1 Bft) SO 135 0 min 0,025 mm 0 W/m 9,6 C 13,2 C 6,4 km/h (2 Bft) 100 %
09.09.2017 04:10 13,2 C 13,2 C 13,3 C 79 % 1000,4 hPa 0,0 l/m 3,2 km/h (1 Bft) SO 135 0 min 0,000 mm 0 W/m 9,6 C 13,2 C 8,0 km/h (2 Bft) 100 %
09.09.2017 04:20 13,3 C 13,2 C 13,3 C 79 % 1000,3 hPa 0,0 l/m 4,8 km/h (1 Bft) S-SO 157 0 min 0,000 mm 0 W/m 9,7 C 13,3 C 8,0 km/h (2 Bft) 100 %
09.09.2017 04:30 13,5 C 13,3 C 13,5 C 79 % 1000,1 hPa 0,0 l/m 3,2 km/h (1 Bft) SO 135 0 min 0,000 mm 0 W/m 9,9 C 13,5 C 9,7 km/h (2 Bft) 90 %
09.09.2017 04:40 13,6 C 13,5 C 13,6 C 79 % 1000,0 hPa 0,0 l/m 3,2 km/h (1 Bft) S-SO 157 0 min 0,000 mm 0 W/m 10,0 C 13,6 C 8,0 km/h (2 Bft) 97 %
09.09.2017 04:50 13,5 C 13,5 C 13,6 C 79 % 999,8 hPa 0,0 l/m 3,2 km/h (1 Bft) SO 135 0 min 0,000 mm 0 W/m 9,9 C 13,5 C 9,7 km/h (2 Bft) 100 %
09.09.2017 05:00 13,6 C 13,5 C 13,6 C 79 % 999,6 hPa 0,0 l/m 4,8 km/h (1 Bft) SO 135 0 min 0,025 mm 0 W/m 10,0 C 13,6 C 11,3 km/h (2 Bft) 100 %
09.09.2017 05:10 13,5 C 13,5 C 13,6 C 79 % 999,6 hPa 0,0 l/m 4,8 km/h (1 Bft) S-SO 157 0 min 0,000 mm 0 W/m 9,9 C 13,5 C 9,7 km/h (2 Bft) 100 %
09.09.2017 05:20 13,3 C 13,3 C 13,5 C 80 % 999,6 hPa 0,0 l/m 1,6 km/h (1 Bft) S-SO 157 0 min 0,000 mm 0 W/m 9,9 C 13,3 C 8,0 km/h (2 Bft) 100 %
09.09.2017 05:30 13,2 C 13,2 C 13,3 C 81 % 999,5 hPa 0,0 l/m 3,2 km/h (1 Bft) S-SO 157 0 min 0,000 mm 0 W/m 10,0 C 13,2 C 6,4 km/h (2 Bft) 99 %
09.09.2017 05:40 13,2 C 13,2 C 13,2 C 80 % 999,4 hPa 0,0 l/m 3,2 km/h (1 Bft) S-SO 157 0 min 0,000 mm 0 W/m 9,8 C 13,2 C 11,3 km/h (2 Bft) 100 %
09.09.2017 05:50 13,3 C 13,2 C 13,3 C 81 % 999,4 hPa 0,0 l/m 3,2 km/h (1 Bft) S-SO 157 0 min 0,000 mm 0 W/m 10,1 C 13,3 C 9,7 km/h (2 Bft) 100 %
09.09.2017 06:00 13,3 C 13,3 C 13,3 C 80 % 999,1 hPa 0,0 l/m 3,2 km/h (1 Bft) S-SO 157 0 min 0,025 mm 0 W/m 9,9 C 13,3 C 6,4 km/h (2 Bft) 100 %
09.09.2017 06:10 13,4 C 13,3 C 13,4 C 80 % 999,1 hPa 0,0 l/m 3,2 km/h (1 Bft) S-SO 157 0 min 0,000 mm 0 W/m 10,0 C 13,4 C 11,3 km/h (2 Bft) 100 %
09.09.2017 06:20 13,6 C 13,4 C 13,6 C 79 % 999,0 hPa 0,0 l/m 6,4 km/h (2 Bft) S-SO 157 0 min 0,000 mm 0 W/m 10,0 C 13,6 C 14,5 km/h (3 Bft) 100 %
09.09.2017 06:30 13,6 C 13,6 C 13,6 C 79 % 998,8 hPa 0,0 l/m 8,0 km/h (2 Bft) S-SO 157 0 min 0,000 mm 0 W/m 10,0 C 12,6 C 17,7 km/h (3 Bft) 100 %
09.09.2017 06:40 13,7 C 13,6 C 13,7 C 79 % 998,6 hPa 0,0 l/m 6,4 km/h (2 Bft) S-SO 157 0 min 0,000 mm 0 W/m 10,1 C 13,7 C 14,5 km/h (3 Bft) 100 %
09.09.2017 06:50 13,8 C 13,7 C 13,8 C 78 % 998,6 hPa 0,0 l/m 8,0 km/h (2 Bft) S-SO 157 0 min 0,000 mm 0 W/m 10,0 C 12,8 C 19,3 km/h (3 Bft) 100 %
09.09.2017 07:00 13,8 C 13,8 C 13,8 C 78 % 998,6 hPa 0,0 l/m 8,0 km/h (2 Bft) S-SO 157 0 min 0,025 mm 0 W/m 10,0 C 12,8 C 16,1 km/h (3 Bft) 100 %
09.09.2017 07:10 13,8 C 13,8 C 13,8 C 79 % 998,6 hPa 0,0 l/m 6,4 km/h (2 Bft) S-SO 157 0 min 0,000 mm 5 W/m 10,2 C 13,8 C 9,7 km/h (2 Bft) 100 %
09.09.2017 07:20 13,7 C 13,7 C 13,8 C 80 % 998,4 hPa 0,0 l/m 6,4 km/h (2 Bft) S-SO 157 0 min 0,000 mm 5 W/m 10,3 C 13,7 C 11,3 km/h (2 Bft) 100 %
09.09.2017 07:30 13,7 C 13,7 C 13,7 C 80 % 998,2 hPa 0,0 l/m 6,4 km/h (2 Bft) S-SO 157 0 min 0,000 mm 5 W/m 10,3 C 13,7 C 16,1 km/h (3 Bft) 100 %
09.09.2017 07:40 13,6 C 13,6 C 13,7 C 81 % 998,4 hPa 0,0 l/m 4,8 km/h (1 Bft) S-SO 157 0 min 0,000 mm 5 W/m 10,4 C 13,6 C 11,3 km/h (2 Bft) 100 %
09.09.2017 07:50 13,4 C 13,4 C 13,6 C 82 % 998,6 hPa 0,0 l/m 4,8 km/h (1 Bft) S-SO 157 0 min 0,000 mm 0 W/m 10,4 C 13,4 C 9,7 km/h (2 Bft) 100 %
09.09.2017 08:00 13,2 C 13,2 C 13,4 C 83 % 998,5 hPa 0,0 l/m 4,8 km/h (1 Bft) S-SO 157 0 min 0,025 mm 0 W/m 10,4 C 13,2 C 14,5 km/h (3 Bft) 100 %
09.09.2017 08:10 13,2 C 13,2 C 13,3 C 83 % 998,5 hPa 0,0 l/m 4,8 km/h (1 Bft) S-SO 157 0 min 0,000 mm 7 W/m 10,4 C 13,2 C 9,7 km/h (2 Bft) 100 %
09.09.2017 08:20 13,2 C 13,2 C 13,2 C 84 % 998,8 hPa 0,2 l/m 4,8 km/h (1 Bft) S 180 0 min 0,000 mm 7 W/m 10,6 C 13,2 C 9,7 km/h (2 Bft) 100 %
09.09.2017 08:30 13,0 C 13,0 C 13,2 C 85 % 998,8 hPa 0,2 l/m 3,2 km/h (1 Bft) S-SO 157 0 min 0,000 mm 7 W/m 10,5 C 13,0 C 8,0 km/h (2 Bft) 100 %
09.09.2017 08:40 12,7 C 12,7 C 13,0 C 87 % 999,0 hPa 0,4 l/m 4,8 km/h (1 Bft) S-SO 157 0 min 0,000 mm 11 W/m 10,6 C 12,7 C 11,3 km/h (2 Bft) 99 %
09.09.2017 08:50 12,6 C 12,6 C 12,8 C 88 % 998,9 hPa 0,2 l/m 4,8 km/h (1 Bft) S 180 0 min 0,000 mm 16 W/m 10,7 C 12,6 C 11,3 km/h (2 Bft) 96 %
09.09.2017 09:00 12,4 C 12,4 C 12,6 C 88 % 999,0 hPa 0,2 l/m 4,8 km/h (1 Bft) S-SO 157 0 min 0,025 mm 16 W/m 10,5 C 12,4 C 9,7 km/h (2 Bft) 94 %
09.09.2017 09:10 12,4 C 12,4 C 12,4 C 88 % 999,3 hPa 0,0 l/m 6,4 km/h (2 Bft) S-SO 157 0 min 0,000 mm 23 W/m 10,5 C 12,4 C 14,5 km/h (3 Bft) 100 %
09.09.2017 09:20 12,4 C 12,4 C 12,4 C 88 % 999,3 hPa 0,0 l/m 6,4 km/h (2 Bft) S-SO 157 0 min 0,000 mm 39 W/m 10,5 C 12,4 C 11,3 km/h (2 Bft) 99 %
09.09.2017 09:30 12,4 C 12,4 C 12,4 C 88 % 999,3 hPa 0,0 l/m 6,4 km/h (2 Bft) S-SO 157 0 min 0,000 mm 33 W/m 10,5 C 12,4 C 12,9 km/h (3 Bft) 100 %
09.09.2017 09:40 12,4 C 12,4 C 12,4 C 89 % 999,4 hPa 0,2 l/m 4,8 km/h (1 Bft) SO 135 0 min 0,000 mm 40 W/m 10,6 C 12,4 C 11,3 km/h (2 Bft) 100 %
09.09.2017 09:50 12,4 C 12,4 C 12,4 C 89 % 999,5 hPa 0,0 l/m 4,8 km/h (1 Bft) S-SO 157 0 min 0,000 mm 39 W/m 10,6 C 12,4 C 11,3 km/h (2 Bft) 100 %
09.09.2017 10:00 12,4 C 12,4 C 12,4 C 89 % 999,8 hPa 0,0 l/m 4,8 km/h (1 Bft) S 180 0 min 0,025 mm 44 W/m 10,6 C 12,4 C 8,0 km/h (2 Bft) 100 %
09.09.2017 10:10 12,5 C 12,4 C 12,5 C 88 % 999,8 hPa 0,0 l/m 4,8 km/h (1 Bft) S-SO 157 0 min 0,000 mm 83 W/m 10,6 C 12,5 C 9,7 km/h (2 Bft) 100 %
09.09.2017 10:20 12,7 C 12,5 C 12,7 C 89 % 999,9 hPa 0,0 l/m 4,8 km/h (1 Bft) S-SO 157 0 min 0,000 mm 113 W/m 10,9 C 12,7 C 8,0 km/h (2 Bft) 100 %
09.09.2017 10:30 12,9 C 12,7 C 12,9 C 88 % 1000,0 hPa 0,0 l/m 4,8 km/h (1 Bft) S 180 0 min 0,000 mm 107 W/m 11,0 C 12,9 C 9,7 km/h (2 Bft) 99 %
09.09.2017 10:40 13,1 C 12,9 C 13,1 C 89 % 1000,3 hPa 0,0 l/m 4,8 km/h (1 Bft) S-SO 157 0 min 0,000 mm 54 W/m 11,3 C 13,1 C 16,1 km/h (3 Bft) 100 %
09.09.2017 10:50 13,1 C 13,1 C 13,1 C 89 % 1000,6 hPa 0,0 l/m 8,0 km/h (2 Bft) S-SO 157 0 min 0,000 mm 47 W/m 11,3 C 12,1 C 25,7 km/h (4 Bft) 100 %
09.09.2017 11:00 13,0 C 13,0 C 13,1 C 89 % 1000,6 hPa 0,0 l/m 11,3 km/h (2 Bft) W-SW 247 0 min 0,051 mm 49 W/m 11,2 C 10,3 C 27,4 km/h (4 Bft) 100 %
09.09.2017 11:10 12,7 C 12,7 C 13,0 C 89 % 1000,9 hPa 0,0 l/m 14,5 km/h (3 Bft) W 270 0 min 0,000 mm 69 W/m 10,9 C 8,6 C 35,4 km/h (5 Bft) 100 %
09.09.2017 11:30 12,6 C 12,5 C 13,0 C 88 % 1001,1 hPa 0,2 l/m 11,0 km/h (2 Bft) W 279 0 min 0,000 mm 65 W/m 10,7 C 10,0 C 27,4 km/h (4 Bft) 99 %
09.09.2017 11:40 12,5 C 12,5 C 12,6 C 88 % 1001,3 hPa 0,0 l/m 13,0 km/h (3 Bft) S-SW 209 0 min 0,000 mm 76 W/m 10,6 C 9,0 C 33,8 km/h (5 Bft) 100 %
09.09.2017 11:50 12,5 C 12,5 C 12,6 C 88 % 1001,3 hPa 0,0 l/m 13,5 km/h (3 Bft) W 269 0 min 0,000 mm 62 W/m 10,6 C 8,8 C 27,4 km/h (4 Bft) 100 %
09.09.2017 12:00 12,6 C 12,5 C 12,6 C 91 % 1001,4 hPa 0,0 l/m 16,7 km/h (3 Bft) W 260 0 min 0,030 mm 91 W/m 11,2 C 7,7 C 33,8 km/h (5 Bft) 100 %
09.09.2017 12:10 12,6 C 12,6 C 12,7 C 88 % 1001,3 hPa 0,0 l/m 12,7 km/h (3 Bft) W-SW 251 0 min 0,000 mm 116 W/m 10,7 C 9,2 C 37,0 km/h (5 Bft) 100 %
09.09.2017 12:20 12,8 C 12,6 C 12,8 C 89 % 1000,9 hPa 0,0 l/m 10,0 km/h (2 Bft) W-SW 252 10 min 0,000 mm 229 W/m 11,0 C 10,7 C 24,1 km/h (4 Bft) 100 %
09.09.2017 12:30 13,1 C 12,8 C 13,1 C 89 % 1000,7 hPa 0,0 l/m 10,4 km/h (2 Bft) W-SW 256 0 min 0,000 mm 134 W/m 11,3 C 10,8 C 25,7 km/h (4 Bft) 100 %
09.09.2017 12:40 13,3 C 13,1 C 13,3 C 89 % 1000,9 hPa 0,0 l/m 7,4 km/h (2 Bft) SW 231 10 min 0,000 mm 193 W/m 11,5 C 12,7 C 22,5 km/h (4 Bft) 100 %
09.09.2017 12:50 13,4 C 13,3 C 13,4 C 89 % 1000,8 hPa 0,0 l/m 7,7 km/h (2 Bft) SW 220 0 min 0,000 mm 113 W/m 11,6 C 12,6 C 19,3 km/h (3 Bft) 100 %
09.09.2017 13:00 13,5 C 13,4 C 13,5 C 89 % 1001,0 hPa 0,0 l/m 7,4 km/h (2 Bft) S-SW 205 0 min 0,101 mm 95 W/m 11,7 C 12,9 C 22,5 km/h (4 Bft) 100 %
09.09.2017 13:10 13,6 C 13,5 C 13,6 C 89 % 1000,9 hPa 0,0 l/m 11,1 km/h (2 Bft) S-SW 205 10 min 0,000 mm 172 W/m 11,8 C 11,1 C 22,5 km/h (4 Bft) 100 %
09.09.2017 13:20 13,9 C 13,6 C 13,9 C 89 % 1000,7 hPa 0,0 l/m 8,0 km/h (2 Bft) SW 235 10 min 0,000 mm 327 W/m 12,1 C 12,9 C 22,5 km/h (4 Bft) 100 %
09.09.2017 13:30 14,3 C 13,9 C 14,3 C 88 % 1000,6 hPa 0,0 l/m 7,6 km/h (2 Bft) S-SW 212 10 min 0,000 mm 318 W/m 12,3 C 13,6 C 19,3 km/h (3 Bft) 100 %
09.09.2017 13:40 14,8 C 14,3 C 14,8 C 87 % 1000,6 hPa 0,0 l/m 6,6 km/h (2 Bft) SW 217 10 min 0,000 mm 462 W/m 12,7 C 14,7 C 25,7 km/h (4 Bft) 99 %
09.09.2017 13:50 15,7 C 14,8 C 15,7 C 87 % 1000,6 hPa 0,0 l/m 5,3 km/h (1 Bft) S-SW 194 10 min 0,000 mm 635 W/m 13,5 C 15,7 C 17,7 km/h (3 Bft) 91 %
09.09.2017 14:00 16,2 C 15,7 C 16,2 C 85 % 1000,7 hPa 0,0 l/m 7,9 km/h (2 Bft) W-SW 256 10 min 0,229 mm 670 W/m 13,7 C 15,4 C 24,1 km/h (4 Bft) 100 %
09.09.2017 14:10 16,6 C 16,2 C 16,6 C 81 % 1000,7 hPa 0,0 l/m 11,3 km/h (2 Bft) W 267 10 min 0,000 mm 343 W/m 13,3 C 14,4 C 25,7 km/h (4 Bft) 100 %
09.09.2017 14:20 16,4 C 16,4 C 16,6 C 78 % 1000,9 hPa 0,0 l/m 10,6 km/h (2 Bft) SW 231 10 min 0,000 mm 258 W/m 12,6 C 14,4 C 27,4 km/h (4 Bft) 100 %
09.09.2017 14:30 16,2 C 16,2 C 16,4 C 78 % 1000,5 hPa 0,0 l/m 11,8 km/h (2 Bft) W-SW 248 10 min 0,000 mm 190 W/m 12,4 C 13,7 C 24,1 km/h (4 Bft) 100 %
09.09.2017 14:40 15,8 C 15,8 C 16,2 C 79 % 1000,8 hPa 0,0 l/m 12,6 km/h (3 Bft) SW 228 0 min 0,000 mm 91 W/m 12,2 C 13,0 C 25,7 km/h (4 Bft) 100 %
09.09.2017 14:50 15,5 C 15,5 C 15,8 C 80 % 1000,6 hPa 0,0 l/m 6,8 km/h (2 Bft) SW 228 0 min 0,000 mm 127 W/m 12,1 C 15,3 C 25,7 km/h (4 Bft) 100 %
09.09.2017 15:00 15,4 C 15,4 C 15,5 C 82 % 1000,9 hPa 0,0 l/m 5,9 km/h (2 Bft) W 265 10 min 0,152 mm 156 W/m 12,3 C 15,4 C 16,1 km/h (3 Bft) 100 %
09.09.2017 15:10 15,4 C 15,4 C 15,4 C 83 % 1000,9 hPa 0,0 l/m 2,6 km/h (1 Bft) SW 229 10 min 0,000 mm 156 W/m 12,5 C 15,4 C 9,7 km/h (2 Bft) 100 %
09.09.2017 15:20 15,4 C 15,4 C 15,5 C 82 % 1000,7 hPa 0,0 l/m 4,9 km/h (1 Bft) S-SW 211 0 min 0,000 mm 116 W/m 12,3 C 15,4 C 11,3 km/h (2 Bft) 100 %
09.09.2017 15:30 15,5 C 15,4 C 15,5 C 83 % 1000,7 hPa 0,0 l/m 3,6 km/h (1 Bft) S-SW 202 10 min 0,000 mm 229 W/m 12,6 C 15,5 C 12,9 km/h (3 Bft) 100 %
09.09.2017 15:40 15,9 C 15,5 C 15,9 C 82 % 1000,6 hPa 0,0 l/m 3,7 km/h (1 Bft) S-SO 159 10 min 0,000 mm 316 W/m 12,8 C 15,9 C 11,3 km/h (2 Bft) 100 %
09.09.2017 15:50 16,2 C 15,9 C 16,2 C 81 % 1000,5 hPa 0,0 l/m 6,9 km/h (2 Bft) S-SW 200 10 min 0,000 mm 190 W/m 12,9 C 15,9 C 17,7 km/h (3 Bft) 100 %
09.09.2017 16:00 16,3 C 16,2 C 16,3 C 81 % 1000,5 hPa 0,0 l/m 3,9 km/h (1 Bft) S-SW 202 10 min 0,127 mm 262 W/m 13,0 C 16,3 C 16,1 km/h (3 Bft) 100 %
09.09.2017 16:10 16,3 C 16,3 C 16,3 C 79 % 1000,6 hPa 0,0 l/m 7,0 km/h (2 Bft) S-SW 192 10 min 0,000 mm 279 W/m 12,6 C 16,0 C 20,9 km/h (4 Bft) 100 %
09.09.2017 16:20 16,4 C 16,3 C 16,4 C 79 % 1000,7 hPa 0,0 l/m 7,6 km/h (2 Bft) S 177 10 min 0,000 mm 188 W/m 12,7 C 15,8 C 17,7 km/h (3 Bft) 100 %
09.09.2017 16:30 16,3 C 16,3 C 16,4 C 78 % 1000,7 hPa 0,0 l/m 4,6 km/h (1 Bft) S-SW 196 0 min 0,000 mm 120 W/m 12,5 C 16,3 C 20,9 km/h (4 Bft) 99 %
09.09.2017 16:40 16,1 C 16,1 C 16,3 C 77 % 1000,6 hPa 0,0 l/m 4,1 km/h (1 Bft) S 183 0 min 0,000 mm 102 W/m 12,1 C 16,1 C 11,3 km/h (2 Bft) 100 %
09.09.2017 16:50 16,0 C 16,0 C 16,1 C 78 % 1000,6 hPa 0,0 l/m 2,5 km/h (1 Bft) S-SO 152 0 min 0,000 mm 81 W/m 12,2 C 16,0 C 12,9 km/h (3 Bft) 100 %
09.09.2017 17:00 15,9 C 15,9 C 16,0 C 80 % 1000,7 hPa 0,0 l/m 2,4 km/h (1 Bft) S-SO 153 0 min 0,102 mm 51 W/m 12,5 C 15,9 C 16,1 km/h (3 Bft) 100 %
09.09.2017 17:10 15,8 C 15,8 C 15,9 C 82 % 1000,7 hPa 0,0 l/m 2,1 km/h (1 Bft) S 169 0 min 0,000 mm 37 W/m 12,7 C 15,8 C 11,3 km/h (2 Bft) 100 %
09.09.2017 17:20 15,6 C 15,6 C 15,8 C 83 % 1000,7 hPa 0,0 l/m 3,4 km/h (1 Bft) S-SO 151 0 min 0,000 mm 35 W/m 12,7 C 15,6 C 12,9 km/h (3 Bft) 100 %
09.09.2017 17:30 15,4 C 15,4 C 15,6 C 84 % 1000,7 hPa 0,0 l/m 0,7 km/h (0 Bft) S-SO 158 0 min 0,000 mm 47 W/m 12,7 C 15,4 C 9,7 km/h (2 Bft) 100 %
09.09.2017 17:40 15,3 C 15,3 C 15,4 C 85 % 1000,5 hPa 0,0 l/m 3,7 km/h (1 Bft) S-SO 166 0 min 0,000 mm 67 W/m 12,8 C 15,3 C 9,7 km/h (2 Bft) 100 %
09.09.2017 17:50 15,3 C 15,3 C 15,3 C 85 % 1000,5 hPa 0,0 l/m 0,5 km/h (0 Bft) S-SO 150 0 min 0,000 mm 63 W/m 12,8 C 15,3 C 8,0 km/h (2 Bft) 100 %
09.09.2017 18:00 15,1 C 15,1 C 15,3 C 85 % 1000,5 hPa 0,0 l/m 3,1 km/h (1 Bft) S-SO 157 0 min 0,025 mm 46 W/m 12,6 C 15,1 C 11,3 km/h (2 Bft) 100 %
09.09.2017 18:10 15,1 C 15,1 C 15,1 C 86 % 1000,7 hPa 0,0 l/m 1,6 km/h (1 Bft) S-SO 164 0 min 0,000 mm 26 W/m 12,8 C 15,1 C 9,7 km/h (2 Bft) 100 %
09.09.2017 18:20 14,8 C 14,8 C 15,1 C 86 % 1000,9 hPa 0,0 l/m 5,5 km/h (1 Bft) SO 140 0 min 0,000 mm 12 W/m 12,5 C 14,8 C 14,5 km/h (3 Bft) 99 %
09.09.2017 18:30 14,7 C 14,7 C 14,8 C 86 % 1000,8 hPa 0,0 l/m 3,0 km/h (1 Bft) S-SO 150 0 min 0,000 mm 28 W/m 12,4 C 14,7 C 12,9 km/h (3 Bft) 100 %
09.09.2017 18:40 14,6 C 14,6 C 14,7 C 86 % 1000,9 hPa 0,0 l/m 2,6 km/h (1 Bft) S-SO 156 0 min 0,000 mm 18 W/m 12,3 C 14,6 C 11,3 km/h (2 Bft) 100 %
09.09.2017 18:50 14,5 C 14,5 C 14,6 C 86 % 1000,7 hPa 0,0 l/m 1,5 km/h (1 Bft) S 186 0 min 0,000 mm 21 W/m 12,2 C 14,5 C 9,7 km/h (2 Bft) 100 %
09.09.2017 19:00 14,4 C 14,4 C 14,5 C 86 % 1000,8 hPa 0,0 l/m 2,3 km/h (1 Bft) S 176 0 min 0,026 mm 16 W/m 12,1 C 14,4 C 8,0 km/h (2 Bft) 100 %
09.09.2017 19:10 14,3 C 14,3 C 14,4 C 86 % 1000,8 hPa 0,0 l/m 1,9 km/h (1 Bft) SO 143 0 min 0,000 mm 14 W/m 12,0 C 14,3 C 9,7 km/h (2 Bft) 100 %
09.09.2017 19:20 14,2 C 14,2 C 14,3 C 86 % 1000,8 hPa 0,0 l/m 2,9 km/h (1 Bft) S-SO 148 0 min 0,000 mm 9 W/m 11,9 C 14,2 C 11,3 km/h (2 Bft) 100 %
09.09.2017 19:30 14,1 C 14,1 C 14,2 C 87 % 1001,1 hPa 0,0 l/m 5,0 km/h (1 Bft) S 182 0 min 0,000 mm 0 W/m 12,0 C 14,1 C 11,3 km/h (2 Bft) 100 %
09.09.2017 19:40 14,0 C 14,0 C 14,2 C 87 % 1001,0 hPa 0,0 l/m 4,9 km/h (1 Bft) S-SO 159 0 min 0,000 mm 0 W/m 11,9 C 14,0 C 11,3 km/h (2 Bft) 100 %
09.09.2017 19:50 13,9 C 13,9 C 14,0 C 87 % 1000,9 hPa 0,0 l/m 4,5 km/h (1 Bft) S 185 0 min 0,000 mm 0 W/m 11,8 C 13,9 C 19,3 km/h (3 Bft) 100 %
09.09.2017 20:00 13,7 C 13,7 C 13,9 C 88 % 1001,2 hPa 0,0 l/m 4,7 km/h (1 Bft) SO 144 0 min 0,000 mm 0 W/m 11,7 C 13,7 C 16,1 km/h (3 Bft) 100 %
09.09.2017 20:10 13,6 C 13,6 C 13,7 C 88 % 1001,4 hPa 0,0 l/m 6,0 km/h (2 Bft) S-SO 153 0 min 0,000 mm 0 W/m 11,6 C 13,6 C 12,9 km/h (3 Bft) 100 %
09.09.2017 20:20 13,4 C 13,4 C 13,6 C 89 % 1001,6 hPa 0,0 l/m 5,8 km/h (2 Bft) S-SO 148 0 min 0,000 mm 0 W/m 11,6 C 13,4 C 16,1 km/h (3 Bft) 100 %
09.09.2017 20:30 13,3 C 13,3 C 13,4 C 89 % 1001,5 hPa 0,2 l/m 7,4 km/h (2 Bft) S-SO 162 0 min 0,000 mm 0 W/m 11,5 C 12,7 C 14,5 km/h (3 Bft) 100 %
09.09.2017 20:40 13,2 C 13,2 C 13,3 C 89 % 1001,7 hPa 0,0 l/m 6,5 km/h (2 Bft) SO 138 0 min 0,000 mm 0 W/m 11,4 C 13,2 C 14,5 km/h (3 Bft) 100 %
09.09.2017 20:50 13,1 C 13,1 C 13,2 C 89 % 1001,7 hPa 0,0 l/m 2,3 km/h (1 Bft) S-SO 150 0 min 0,000 mm 0 W/m 11,3 C 13,1 C 9,7 km/h (2 Bft) 100 %
09.09.2017 21:00 12,9 C 12,9 C 13,1 C 89 % 1001,9 hPa 0,0 l/m 0,0 km/h (0 Bft) SO 145 0 min 0,025 mm 0 W/m 11,1 C 12,9 C 1,6 km/h (1 Bft) 100 %
09.09.2017 21:10 12,8 C 12,8 C 12,9 C 89 % 1002,0 hPa 0,0 l/m 3,2 km/h (1 Bft) S-SO 157 0 min 0,000 mm 0 W/m 11,0 C 12,8 C 8,0 km/h (2 Bft) 97 %
09.09.2017 21:20 12,8 C 12,8 C 12,8 C 89 % 1002,0 hPa 0,0 l/m 6,4 km/h (2 Bft) SO 135 0 min 0,000 mm 0 W/m 11,0 C 12,8 C 9,7 km/h (2 Bft) 97 %
09.09.2017 21:30 12,7 C 12,7 C 12,8 C 89 % 1002,1 hPa 0,0 l/m 4,8 km/h (1 Bft) SO 135 0 min 0,000 mm 0 W/m 10,9 C 12,7 C 9,7 km/h (2 Bft) 98 %
09.09.2017 21:40 12,7 C 12,7 C 12,7 C 89 % 1002,3 hPa 0,0 l/m 0,0 km/h (0 Bft) S-SO 157 0 min 0,000 mm 0 W/m 10,9 C 12,7 C 6,4 km/h (2 Bft) 97 %
09.09.2017 21:50 12,7 C 12,7 C 12,7 C 89 % 1002,1 hPa 0,0 l/m 1,6 km/h (1 Bft) SO 135 0 min 0,000 mm 0 W/m 10,9 C 12,7 C 6,4 km/h (2 Bft) 97 %
09.09.2017 22:00 12,7 C 12,7 C 12,7 C 89 % 1002,3 hPa 0,0 l/m 1,6 km/h (1 Bft) SO 135 0 min 0,000 mm 0 W/m 10,9 C 12,7 C 11,3 km/h (2 Bft) 98 %
09.09.2017 22:10 12,7 C 12,7 C 12,7 C 89 % 1002,5 hPa 0,0 l/m 1,6 km/h (1 Bft) S-SO 157 0 min 0,000 mm 0 W/m 10,9 C 12,7 C 8,0 km/h (2 Bft) 97 %
09.09.2017 22:20 12,7 C 12,7 C 12,7 C 89 % 1002,1 hPa 0,0 l/m 1,6 km/h (1 Bft) S-SO 157 0 min 0,000 mm 0 W/m 10,9 C 12,7 C 6,4 km/h (2 Bft) 98 %
09.09.2017 22:30 12,6 C 12,6 C 12,7 C 89 % 1002,0 hPa 0,0 l/m 0,0 km/h (0 Bft) SO 135 0 min 0,000 mm 0 W/m 10,8 C 12,6 C 4,8 km/h (1 Bft) 97 %
09.09.2017 22:40 12,6 C 12,6 C 12,6 C 89 % 1002,4 hPa 0,0 l/m 3,2 km/h (1 Bft) SO 135 0 min 0,000 mm 0 W/m 10,8 C 12,6 C 11,3 km/h (2 Bft) 97 %
09.09.2017 22:50 12,6 C 12,6 C 12,6 C 89 % 1002,5 hPa 0,0 l/m 3,2 km/h (1 Bft) S-SO 157 0 min 0,000 mm 0 W/m 10,8 C 12,6 C 9,7 km/h (2 Bft) 98 %
09.09.2017 23:00 12,6 C 12,6 C 12,6 C 89 % 1002,6 hPa 0,0 l/m 4,8 km/h (1 Bft) S-SO 157 0 min 0,000 mm 0 W/m 10,8 C 12,6 C 11,3 km/h (2 Bft) 98 %
09.09.2017 23:10 12,6 C 12,6 C 12,6 C 89 % 1002,5 hPa 0,0 l/m 3,2 km/h (1 Bft) S-SO 157 0 min 0,000 mm 0 W/m 10,8 C 12,6 C 9,7 km/h (2 Bft) 98 %
09.09.2017 23:20 12,6 C 12,6 C 12,6 C 89 % 1002,4 hPa 0,0 l/m 3,2 km/h (1 Bft) S-SO 157 0 min 0,000 mm 0 W/m 10,8 C 12,6 C 8,0 km/h (2 Bft) 98 %
09.09.2017 23:30 12,5 C 12,5 C 12,6 C 89 % 1002,2 hPa 0,0 l/m 1,6 km/h (1 Bft) SO 135 0 min 0,000 mm 0 W/m 10,7 C 12,5 C 6,4 km/h (2 Bft) 97 %
09.09.2017 23:40 12,4 C 12,4 C 12,5 C 89 % 1002,3 hPa 0,0 l/m 1,6 km/h (1 Bft) SO 135 0 min 0,000 mm 0 W/m 10,6 C 12,4 C 6,4 km/h (2 Bft) 97 %
09.09.2017 23:50 12,4 C 12,4 C 12,4 C 89 % 1002,5 hPa 0,0 l/m 3,2 km/h (1 Bft) S-SO 157 0 min 0,000 mm 0 W/m 10,6 C 12,4 C 8,0 km/h (2 Bft) 98 %
_ Min-Zeit 09:00 09:00 09:10 01:20 07:30 - 03:30 - - - - - 04:00 12:00 21:00 04:30
Minimum _ 12,4 C 12,4 C 12,4 C 76 % 998,2 hPa - 0,0 km/h (0 Bft) - - - - - 9,6 C 7,7 C 1,6 km/h (1 Bft) 90 %
_ Max-Zeit 14:10 14:20 14:10 12:00 00:00 08:40 12:00 - - 12:20 14:00 14:00 14:00 16:00 12:10 00:00
Maximum _ 16,6 C 16,4 C 16,6 C 91 % 1003,6 hPa 0,4 l/m 16,7 km/h
W (3 Bft)
- - 10 min 0,229 mm 670 W/m 13,7 C 16,3 C 37,0 km/h
NW (5 Bft)
100 %
Durchschnitt _ 13,8 C 13,7 C 13,9 C 84 % 1000,8 hPa #1,8 l/m 5,1 km/h (1 Bft) S-SO - #3:10 h #1,143 mm 117 W/m 11,0 C 13,4 C 13,6 km/h (3 Bft) 99 %
PRIVATE WETTERSTATION BILLIGHEIM-ALLFELD - www.neckar-odenwald-wetter.de - Holger Sonntag